Weather History for Hatteras, NC

Change the Weather History Date:

Monday, June 16, 2014

  Actual Average Record
Temperature  
Mean Temperature 74 °F 76 °F  
Max Temperature 82 °F 81 °F 92 °F (1981)
Min Temperature 65 °F 70 °F 53 °F (1978)
Degree Days  
Heating Degree Days 0 0  
Month to date heating degree days 0 0  
Since 1 June heating degree days 0 0  
Since 1 July heating degree days 2534 2584  
Cooling Degree Days 9 11  
Month to date cooling degree days 135 140  
Year to date cooling degree days 371 283  
Since 1 June cooling degree days 135 140  
Growing Degree Days 22 (Base 50)    
Moisture  
Dew Point 68 °F    
Average Humidity 81    
Maximum Humidity 93    
Minimum Humidity 68    
Precipitation  
Precipitation 0.00 in 0.14 in 2.15 in (1965)
Month to date precipitation 0.70 2.03  
Year to date precipitation 23.49 23.27  
Snow  
Snow 0.00 in - - ()
Month to date snowfall 0.0  
Since 1 July snowfall 5.7  
Snow Depth 0.00 in    
Sea Level Pressure  
Sea Level Pressure 30.16 in    
Wind  
Wind Speed 7 mph (SW)    
Max Wind Speed 14 mph    
Max Gust Speed 18 mph    
Visibility 10 miles    
Events      
T = Trace of Precipitation, MM = Missing Value Source: NWS Daily Summary

Daily Weather History Graph

Daily Weather History Graph

Search for Another Location

Airport:

Trip Planner

Search our weather history database for the weather conditions in past years. The results will help you decide how hot, cold, wet, or windy it might be!

Date:

Astronomy

Jun. 16, 2014 Rise Set
Actual Time 5:47 AM EDT 8:19 PM EDT
Civil Twilight 5:17 AM EDT 8:48 PM EDT
Nautical Twilight 4:40 AM EDT 9:25 PM EDT
Astronomical Twilight 3:59 AM EDT 10:06 PM EDT
Moon 11:17 PM EDT (6/16) 9:41 AM EDT (6/16)
Length of Visible Light 15h 31m
Length of Day
14h 31m
Waning Gibbous, 83% of the Moon is Illuminated
Jun 16
Waning Gibbous
Jun 19
Last Quarter
Jun 27
New
Jul 5
First Quarter
Jul 12
Full

Hourly Weather History & Observations

Time (EDT) Temp. Heat Index Dew Point Humidity Pressure Visibility Wind Dir Wind Speed Gust Speed Precip Events Conditions
12:51 AM 71.1 °F - 60.1 °F 68% 30.16 in 10.0 mi South 5.8 mph - N/A   Clear
1:51 AM 71.1 °F - 62.1 °F 73% 30.15 in 10.0 mi SSW 5.8 mph - N/A   Clear
2:51 AM 68.0 °F - 62.1 °F 81% 30.15 in 10.0 mi WSW 3.5 mph - N/A   Clear
3:51 AM 64.9 °F - 62.1 °F 90% 30.14 in 10.0 mi West 4.6 mph - N/A   Clear
4:51 AM 66.0 °F - 63.0 °F 90% 30.15 in 10.0 mi West 3.5 mph - N/A   Clear
5:51 AM 64.9 °F - 63.0 °F 93% 30.17 in 10.0 mi Calm Calm - N/A   Clear
6:51 AM 69.1 °F - 66.9 °F 93% 30.19 in 9.0 mi Calm Calm - N/A   Clear
7:51 AM 75.9 °F - 68.0 °F 76% 30.19 in 10.0 mi SW 4.6 mph - N/A   Scattered Clouds
8:21 AM 75.0 °F - 68.0 °F 79% 30.20 in 10.0 mi SW 4.6 mph - N/A   Overcast
8:51 AM 75.0 °F - 68.0 °F 79% 30.20 in 10.0 mi SW 5.8 mph - N/A   Mostly Cloudy
9:51 AM 77.0 °F - 69.1 °F 76% 30.20 in 10.0 mi WNW 8.1 mph - N/A   Overcast
10:20 AM 79.0 °F - 70.0 °F 74% 30.19 in 10.0 mi Variable 5.8 mph - N/A   Scattered Clouds
11:42 AM 78.1 °F - 70.0 °F 76% 30.19 in 10.0 mi SW 8.1 mph - N/A   Mostly Cloudy
11:51 AM 79.0 °F - 70.0 °F 74% 30.19 in 10.0 mi WSW 8.1 mph - N/A   Scattered Clouds
12:51 PM 80.1 °F 83.2 °F 70.0 °F 71% 30.18 in 10.0 mi SW 6.9 mph - N/A   Clear
1:51 PM 81.0 °F 84.4 °F 70.0 °F 69% 30.16 in 10.0 mi SSW 8.1 mph - N/A   Clear
2:51 PM 81.0 °F 84.4 °F 70.0 °F 69% 30.15 in 10.0 mi SSW 8.1 mph - N/A   Clear
3:51 PM 81.0 °F 84.4 °F 70.0 °F 69% 30.15 in 10.0 mi SSW 10.4 mph - N/A   Clear
4:51 PM 81.0 °F 84.9 °F 71.1 °F 72% 30.14 in 10.0 mi SSW 9.2 mph - N/A   Clear
5:51 PM 80.1 °F 83.6 °F 71.1 °F 74% 30.13 in 10.0 mi SSW 10.4 mph - N/A   Clear
6:51 PM 79.0 °F - 71.1 °F 77% 30.12 in 10.0 mi SW 9.2 mph - N/A   Clear
7:51 PM 77.0 °F - 71.1 °F 82% 30.13 in 10.0 mi SW 9.2 mph - N/A   Clear
8:51 PM 75.9 °F - 70.0 °F 82% 30.14 in 10.0 mi SW 11.5 mph - N/A   Clear
9:51 PM 75.9 °F - 69.1 °F 79% 30.15 in 10.0 mi WSW 11.5 mph - N/A   Clear
10:51 PM 75.9 °F - 69.1 °F 79% 30.16 in 10.0 mi WSW 10.4 mph - N/A   Clear
11:51 PM 75.9 °F - 70.0 °F 82% 30.15 in 10.0 mi WSW 9.2 mph - N/A   Clear